Location: Sandy Point Observatory
(37.2521°N, 76.9605°W)
Time: 12:54:46
(UTC-05:00)

N. Korean satellite - Visible Passes

Search period start: 20 November 2018 00:00
Search period end: 30 November 2018 00:00
Orbit: 456 x 511 km, 97.2° (Epoch: 19 November)

Date Brightness Start Highest point End Pass type
(mag) Time Alt. Az. Time Alt. Az. Time Alt. Az.
20 Nov 6.9 06:18:48 10° NNE 06:22:13 67° E 06:25:38 10° S visible
20 Nov 9.2 18:26:22 10° SSW 18:29:14 22° W 18:32:05 10° NW visible
21 Nov 8.8 05:54:38 10° NE 05:57:40 29° E 06:00:42 10° SSE visible
21 Nov 7.6 18:01:11 10° S 18:04:40 47° W 18:08:06 10° NNW visible
22 Nov 9.9 05:31:11 10° ENE 05:33:02 14° E 05:34:52 10° SE visible
22 Nov 6.4 17:36:35 10° SSE 17:40:09 74° ENE 17:43:41 10° N visible
23 Nov 10.0 18:47:46 10° WSW 18:49:15 12° W 18:50:43 10° WNW visible
24 Nov 7.2 06:14:11 10° NNE 06:17:35 57° E 06:21:00 10° S visible
24 Nov 9.0 18:21:37 10° SSW 18:24:36 25° W 18:27:33 10° NW visible
25 Nov 9.0 05:50:06 10° NE 05:53:00 25° E 05:55:56 10° SSE visible
25 Nov 7.3 17:56:32 10° S 18:00:01 55° W 18:03:29 10° NNW visible
26 Nov 10.0 05:26:54 10° ENE 05:28:21 12° E 05:29:49 10° ESE visible
26 Nov 6.5 17:32:01 10° SSE 17:35:31 63° ENE 17:38:59 10° N visible
27 Nov 9.9 18:42:43 10° SW 18:44:33 14° W 18:46:23 10° WNW visible
28 Nov 7.6 06:09:32 10° NNE 06:12:54 49° E 06:16:18 10° S visible
28 Nov 8.7 18:16:50 10° SSW 18:19:55 28° W 18:22:58 10° NW visible
29 Nov 9.3 05:45:31 10° NE 05:48:18 22° E 05:51:06 10° SSE visible
29 Nov 7.0 17:51:51 10° S 17:55:20 64° W 17:58:48 10° NNW visible
